Weather Roundup
Issued by NWS

Home | Current Version | Previous Version | Graphics & Text | Print | Product List | Glossary Off
Versions: 1 2 3 4 5 6 7 8 9 10 11 12 13 14 15 16 17 18 19 20 21 22 23 24 25 26 27 28 29 30 31 32 33 34 35 36 37 38 39 40 41 42 43 44 45 46 47 48 49 50

000
NZUS93 KARX 291410
HRRWXR

CURRENT HOURLY OBSERVATIONS ACROSS
MUCH OF THE UPPER MISSISSIPPI VALLEY
NATIONAL WEATHER SERVICE LA CROSSE WI
900 AM CDT SAT AUG 29 2015


...SOUTHEAST MINNESOTA...


CITY           SKY/WX    TMP DP  RH WIND       PRES   REMARKS
ROCHESTER      FOG       59  58  96 NE8       30.07F VSB 1/2
ROCHESTER/MAYO CLOUDY    58  58 100 NE6       30.07F
WINONA         CLOUDY    61  57  88 CALM      30.05F
AUSTIN         CLOUDY    61  59  94 NE5       30.06S FOG
ALBERT LEA     CLOUDY    59  59 100 NE5       30.07R FOG
DODGE CENTER   FOG       57  57 100 E5        30.07F VSB 1/4
PRESTON        FOG       58  57  96 NE8       30.07S VSB 1/2
OWATONNA       CLOUDY    59  57  94 E6        30.08S FOG
FARIBAULT      CLOUDY    57  57 100 CALM      30.08S FOG
$$

...ELSEWHERE IN MINNESOTA...


CITY           SKY/WX    TMP DP  RH WIND       PRES   REMARKS
MINNEAPOLIS    FOG       57  56  96 SE3       30.07F VSB 1
INTNL FALLS    CLOUDY    67  63  87 SW8       29.98S
DULUTH         CLOUDY    61  56  83 W9        30.03F
RED WING       CLOUDY    57  57 100 CALM      30.05F
REDWOOD FALLS  FOG       55  54  96 S6        30.07R VSB 1/4
MANKATO        CLOUDY    57  55  94 CALM      30.08R VSB 1/4
WORTHINGTON    CLOUDY    55  52  88 S3        30.08S VSB<1/4
FAIRMONT       CLOUDY    57  52  82 NE6       30.08R VSB 3/4
$$

...SOUTHWEST WISCONSIN...


CITY           SKY/WX    TMP DP  RH WIND       PRES   REMARKS
LA CROSSE      CLOUDY    63  58  83 VRB3      30.05R
PRAIRIE DU CHI CLOUDY    62  61  96 N7        30.02R
BOSCOBEL       CLOUDY    64  62  93 VRB3      30.02S FOG
LONE ROCK      CLOUDY    65  63  93 N6        30.02S FOG
PLATTEVILLE    CLOUDY    65  65  99 CALM      30.00S
FORT MC COY    CLOUDY    61  58  91 E6        30.05F
CAMP DOUGLAS   CLOUDY    60  60 100 E6        30.04F
VIROQUA        CLOUDY    59  59 100 NE7       30.04F
WIS DELLS      CLOUDY    60  59  95 NE6       30.04S FOG
$$

...ELSEWHERE IN WISCONSIN...


CITY           SKY/WX    TMP DP  RH WIND       PRES   REMARKS
MILWAUKEE      CLOUDY    62  60  93 SE9       30.04F FOG
MADISON        DRIZZLE   63  61  93 SE6       30.01F FOG
GREEN BAY      CLOUDY    61  59  93 NE5       30.08S FOG
EAU CLAIRE     CLOUDY    58  56  93 SE6       30.05F FOG
BLACK RVR FLS  CLOUDY    62  61  98 E3        30.05S
MEDFORD        CLOUDY    58  57  99 SE5       30.07R FOG
WAUSAU         CLOUDY    61  58  90 SE6       30.04F
WIS RAPIDS     CLOUDY    61  58  90 SE9       30.06F
MARSHFIELD     CLOUDY    61  57  87 SE7       30.06F FOG
RICE LAKE      CLOUDY    57  56  94 S5        30.07F FOG
$$

...NORTHEAST IOWA...


CITY           SKY/WX    TMP DP  RH WIND       PRES   REMARKS
DECORAH        CLOUDY    61  61 100 N7        30.04R FOG
MASON CITY     CLOUDY    61  60  97 N10       30.07R FOG
CHARLES CITY   CLOUDY    61  61 100 N7        30.04S FOG
OELWEIN        CLOUDY    64  64 100 N10       30.02R FOG
$$

...ELSEWHERE IN IOWA...


CITY           SKY/WX    TMP DP  RH WIND       PRES   REMARKS
DES MOINES     CLOUDY    65  61  87 N7        30.00S
IOWA CITY      CLOUDY    67  67 100 CALM      29.98F FOG
FORT DODGE     CLOUDY    59  57  94 N6        30.06S VSB 3/4
$$

...NORTHERN ILLINOIS...


CITY           SKY/WX    TMP DP  RH WIND       PRES   REMARKS
CHICAGO-OHARE  RAIN      64  63  96 NE9       30.05S FOG
CHICAGO-MIDWAY CLOUDY    67  62  84 E5        30.05S
MOLINE         CLOUDY    69  63  81 CALM      29.98R
ROCKFORD       TSTM      64  61  90 SE8       30.03S FOG
PEORIA         MOSUNNY   71  64  78 S9        30.00S
$$

NOTE: "FAIR" INDICATES FEW OR NO CLOUDS BELOW 12,000 FEET WITH NO
SIGNIFICANT WEATHER AND/OR OBSTRUCTIONS TO VISIBILITY. WIND
SPEEDS ARE IN MILES-PER-HOUR.



USA.gov is the U.S. government's official web portal to all federal, state and local government web resources and services.